Dewpoint
-12 -13 -13 -13 -12 -14 -13 -14 -14 -14 -14 -14 -14 -14 -14 -15 -15 -14 -14 -14 -15 -14 -12 -10 -7 -10 -8 -9 -5 -8 -6 -9 -10 -11 -9 -8 -11 -10 -8 -8 -8 -9 -9 -12 -12 -14 -15 -15 -15 -15 -14 -14 -12 -12 -11 -3 -11 -12 -12 -12 -13 -14 2
-12 -12 -12 -13 -13 -13 -14 -12 -14 -14 -14 -13 -12 -13 -14 -14 -13 -14 -14 -13 -14 -13 -12 -5 -4 -7 -9 -9 -4 -4 -5 -6 -6 -6 -9 -10 -7 -11 -8 -12 -9 -9 -9 -8 -10 -12 -13 -15 -15 -15 -14 -14 -13 -12 -10 -11 -12 -12 -13 -12 -11 -12 -14
-10 -9 -12 -12 -12 -13 -13 -13 -13 -13 -11 -11 -11 -12 -13 -13 -13 -13 -13 -12 -12 -12 -12 -7 -4 -4 -4 -5 -4 -4 -5 -4 -5 -6 -7 -7 -7 -8 -12 -12 -10 -8 -8 -7 -9 -12 -14 -16 -15 -14 -13 -13 -12 -11 -12 -12 -11 -11 -11 -11 -12 -11 -12
-10 -10 -11 -11 -11 -11 -13 -12 -11 -10 -11 -9 -10 -10 -9 -11 -12 -11 -12 -9 -11 -11 -11 -5 -6 -4 -4 -4 -4 -4 -7 -7 -5 -5 -5 -5 -6 -7 -11 -13 -12 -10 -7 -7 -8 -11 -14 -14 -13 -12 -12 -12 -11 -12 -12 -12 -8 -10 -5 -10 -8 -11 -11
-10 -10 -10 -11 -10 -11 -12 -11 -11 -10 -10 -10 -10 -10 -9 -9 -3 -6 -5 -6 -6 -3 -3 -5 -4 -6 -4 -4 -5 -4 -5 -5 -6 -5 -5 -5 -5 -7 -7 -7 -10 -11 -8 -7 -8 -10 -11 -11 -11 -10 -11 -11 -12 -12 -12 -11 -11 -7 -6 -6 -11 -12 -9
-9 -9 -10 -11 -11 -10 -10 -11 -11 -10 -10 -10 -11 -11 -10 -3 -3 -5 -3 -3 -5 -5 -3 -3 -3 -4 -4 -3 -3 -5 -5 -4 -5 -5 -6 -5 -5 -5 -5 -6 -7 -8 -6 -7 -9 -7 -9 -9 -10 -10 -10 -11 -12 -13 -13 -8 -7 -6 -5 -6 -7 -6 -4
-7 -7 -8 -8 -8 -8 -8 -8 -8 -9 -9 -9 -10 -4 -3 -4 -5 -7 -4 -3 -4 -3 -2 -2 -2 -2 -3 -3 -3 -3 -3 -3 -3 -4 -4 -4 -5 -5 -5 -5 -6 -6 -6 -7 -7 -6 -8 -9 -8 -10 -11 -11 -12 -12 -12 -13 -12 -10 -9 -7 -7 -8 -6
-5 -7 -7 -8 -8 -7 -7 -7 -7 -8 -9 -5 -3 -2 -2 -3 -3 -3 -3 -4 -3 -3 -2 -2 -2 -1 -1 -1 -1 -1 -0 -1 -3 -4 -4 -5 -5 -5 -5 -6 -6 -6 -7 -7 -6 -8 -8 -9 -10 -11 -11 -12 -12 -12 -11 -12 -12 -12 -11 -9 -8 -7 -7
-4 -4 -5 -6 -5 -6 -4 -2 -2 -2 -3 -2 -1 -1 -1 -2 -2 -3 -3 -3 -3 -2 -2 -1 -1 0 1 1 1 1 0 -0 -1 -4 -7 -5 -4 -5 -5 -6 -6 -7 -8 -8 -7 -8 -8 -9 -10 -11 -12 -12 -12 -9 -12 -12 -12 -10 -10 -11 -12 -9 -7
-1 1 1 -2 -1 -1 -1 -2 -2 -1 1 2 -1 1 1 0 -1 -1 -1 -2 -2 -1 -1 -1 -0 -0 1 1 0 0 0 0 0 0 -2 -6 -6 -5 -5 -6 -7 -8 -8 -7 -8 -9 -8 -9 -9 -10 -11 -12 -12 -12 -12 -12 -12 -13 -13 -13 -9 -10 -8
2 2 1 0 1 0 -1 -0 -0 3 7 7 8 5 2 -1 -1 -1 -1 -1 -1 -2 -2 -2 -0 -1 0 -0 0 -0 0 1 1 1 1 1 1 -1 -4 -6 -7 -7 -7 -8 -8 -8 -7 -9 -9 -9 -10 -11 -12 -12 -12 -12 -12 -13 -11 -11 -11 -11 -8
2 1 1 0 1 0 -1 -1 1 7 7 8 10 10 5 4 2 0 -0 -0 -0 -1 -2 -1 -1 -1 -1 -1 -1 -1 -1 0 1 2 2 2 3 2 2 4 -3 -6 -7 -7 -8 -8 -7 -7 -7 -7 -7 -7 -7 -10 -10 -10 -11 -8 -8 -9 -10 -10 -9
0 0 0 0 0 -1 -1 -1 4 7 9 10 12 13 10 5 6 5 5 5 3 2 1 1 0 0 0 -0 1 0 -0 -1 -1 1 3 3 3 3 3 9 7 5 -2 -6 -6 -7 -7 -7 -6 -6 -6 -5 -7 -5 -6 -7 -8 -6 -7 -7 -9 -10 -10
-1 -0 -0 -0 -1 -2 -2 -2 -0 8 8 10 12 13 12 7 7 6 6 6 7 6 4 3 2 2 1 2 1 1 -0 -1 -1 -2 -2 -0 0 0 1 2 3 2 3 2 -2 -4 -6 -4 -3 -5 -4 -2 -1 -3 -5 -6 -6 -5 -6 -5 -6 -6 -7
-1 -0 -1 -1 -3 -3 -3 -3 4 8 9 10 12 12 11 7 7 6 6 5 5 5 5 5 4 3 1 1 2 1 1 -1 -1 -1 -2 -2 -2 -1 -1 -1 -1 -1 -1 -1 -1 -1 -1 -0 0 -0 -1 -1 -1 -2 -2 -2 -3 -3 -3 -3 -2 -2 -2
-2 -2 -2 -3 -3 -4 -4 -5 6 8 10 11 12 12 7 6 6 5 5 5 5 4 3 3 3 2 2 2 1 3 4 3 -0 -1 -2 -3 -3 -3 -2 -2 1 6 6 -0 -2 -2 -2 -2 -1 5 -1 -1 -2 -3 -2 -3 -3 -2 -3 -5 -7 -8 -7
-4 -4 -3 -3 -3 -4 -5 -5 2 9 10 11 12 11 5 5 4 3 3 3 2 2 2 2 2 1 -0 -0 -0 1 8 8 3 0 -2 -3 -3 -4 -4 -5 -3 6 8 8 9 8 9 8 9 11 10 11 11 5 0 -4 -5 -6 -5 -6 -8 -8 -8
-5 -4 -4 -3 -4 -4 -6 -5 -2 7 9 11 12 10 5 3 2 1 1 0 1 1 0 1 2 2 0 -0 -1 5 8 8 3 -1 -1 -2 -3 -5 -5 -5 -4 -5 -3 9 9 8 6 9 9 8 9 10 10 9 6 0 -4 -4 -5 -7 -8 -10 -10
-4 -4 -5 -4 -4 -3 -5 -5 -4 5 8 11 12 8 5 3 2 0 -0 -1 -1 -0 -1 -1 0 1 1 1 1 8 9 8 2 0 -1 -2 -3 -4 -4 -5 -4 -4 -5 -5 -5 -5 -3 -3 1 -1 -2 -3 -1 2 2 -2 -3 -6 -8 -10 -10 -10 -11
-5 -4 -4 -4 -4 -5 -4 -5 -5 -3 7 10 11 11 5 3 0 -1 -1 -2 -3 -3 -2 -2 -3 -3 1 8 9 8 8 5 9 2 0 -1 -3 -4 -5 -2 -2 -3 -3 -4 -4 -4 -4 -4 -3 -3 -4 -6 -6 -5 -5 -6 -8 -9 -11 -11 -11 -11 -12
-4 -5 -5 -5 -4 -5 -5 -6 -6 -5 8 10 11 11 8 3 2 0 -1 -2 -2 -3 -4 -4 -4 -4 -1 3 7 8 7 7 8 9 2 1 -1 -1 -1 2 -3 -2 1 -2 -3 -4 -4 -5 -5 -6 -7 -7 -8 -9 -9 -7 -7 -8 -9 -11 -12 -12 -12
-6 -7 -6 -6 -6 -6 -6 -6 -6 -7 1 8 10 11 10 4 2 2 -1 -2 -3 -4 -4 -4 -5 -4 -2 -1 6 8 8 8 9 9 2 1 8 7 5 -0 1 -1 -3 -3 -3 -4 -6 -7 -8 -9 -9 -10 -10 -10 -11 -10 -10 -9 -9 -10 -10 -12 -14
-7 -8 -8 -8 -8 -7 -7 -7 -9 -6 -8 -0 7 9 10 10 7 9 3 0 -2 -3 -4 -4 -4 -3 -1 -0 7 8 8 8 8 6 2 9 9 6 4 -0 -5 -6 -6 -7 -7 -8 -9 -10 -11 -11 -11 -12 -12 -13 -11 -13 -12 -11 -11 -12 -12 -11 -11
-9 -9 -9 -10 -10 -10 -10 -9 -10 -8 -7 -8 2 7 9 9 10 10 4 2 -1 -2 -3 -3 -3 -2 5 7 8 7 4 6 1 -0 7 4 3 1 -2 -9 -10 -10 -10 -11 -11 -12 -12 -12 -12 -13 -14 -15 -15 -16 -14 -15 -13 -14 -13 -13 -15 -12 -12
-10 -10 -11 -11 -12 -12 -12 -12 -12 -13 -11 -8 -7 5 7 8 9 7 4 1 0 0 -1 0 6 6 6 6 5 6 6 2 2 3 3 2 1 -1 -8 -10 -12 -12 -13 -14 -14 -14 -15 -15 -16 -16 -16 -13 -13 -14 -14 -15 -15 -14 -14 -13 -13 -12 -12
-10 -11 -12 -13 -13 -13 -13 -13 -13 -14 -13 -11 -8 -8 1 6 4 3 3 2 -0 1 1 3 5 2 2 1 -0 -3 -3 -4 -4 -1 -0 -1 -2 -6 -9 -12 -14 -15 -16 -16 -16 -17 -17 -17 -17 -17 -17 -15 -15 -18 -19 -18 -18 -18 -18 -17 -17 -17 -16
-12 -12 -13 -14 -14 -14 -14 -14 -14 -14 -14 -14 -14 -13 -11 -9 -8 -4 -3 -5 -6 -4 -5 -5 -4 -4 -3 -3 -3 -3 -3 -3 -3 -5 -5 -7 -8 -11 -13 -16 -16 -16 -17 -17 -18 -18 -18 -18 -18 -18 -18 -20 -20 -20 -20 -19 -19 -19 -20 -19 -19 -19 -19
-12 -13 -14 -15 -15 -15 -15 -15 -15 -15 -15 -13 -13 -13 -12 -12 -12 -11 -11 -11 -10 -9 -8 -7 -5 -5 -7 -7 -7 -7 -7 -6 -7 -8 -10 -11 -14 -15 -16 -15 -13 -13 -17 -18 -18 -17 -17 -19 -20 -21 -22 -22 -22 -22 -22 -20 -20 -20 -20 -19 -19 -20 -20
-13 -13 -14 -15 -15 -16 -16 -15 -15 -13 -9 -11 -7 -9 -11 -11 -11 -11 -11 -8 -6 -8 -8 -9 -10 -11 -11 -12 -12 -11 -11 -10 -10 -11 -12 -14 -16 -17 -19 -19 -18 -17 -17 -18 -19 -21 -21 -22 -23 -23 -23 -23 -23 -22 -22 -21 -21 -20 -21 -21 -21 -21 -21
-9 -12 -14 -15 -15 -14 -15 -14 -12 -4 6 8 6 8 1 -2 4 -1 -6 -5 -3 -4 -7 -8 -8 -9 -10 -10 -11 -11 -12 -11 -11 -12 -12 -15 -14 -17 -18 -19 -20 -20 -20 -21 -22 -23 -23 -24 -24 -24 -24 -23 -24 -24 -23 -22 -19 -22 -22 -22 -23 -23 -22
9 10 4 -5 -10 -8 -4 -4 -3 -1 9 9 8 8 8 6 3 4 4 4 -0 -3 -5 -7 -8 -8 -9 -10 -11 -12 -12 -13 -13 -14 -15 -14 -17 -17 -18 -19 -20 -21 -22 -23 -24 -24 -25 -25 -25 -25 -25 -25 -25 -25 -25 -25 -24 -23 -23 -23 -23 -23 -22
10 11 10 6 4 2 -0 2 3 3 10 8 5 6 5 5 5 7 6 3 1 -5 -6 -7 -8 -9 -9 -10 -12 -13 -13 -14 -15 -16 -17 -17 -19 -20 -21 -21 -22 -22 -23 -24 -25 -26 -26 -26 -26 -26 -26 -26 -26 -25 -26 -26 -25 -25 -25 -24 -24 -23 -22
9 9 9 9 8 8 6 6 4 3 7 7 8 7 2 5 5 1 -0 -1 -5 -8 -9 -10 -10 -11 -11 -12 -13 -13 -14 -15 -16 -17 -18 -19 -20 -20 -21 -22 -22 -21 -24 -26 -27 -27 -27 -27 -27 -27 -27 -26 -26 -26 -27 -27 -26 -26 -26 -25 -25 -24 -23
1 2 -3 -2 2 4 6 6 5 5 3 4 5 4 3 -3 -6 3 4 -2 -6 -6 -8 -10 -10 -12 -13 -13 -15 -15 -16 -17 -18 -20 -20 -21 -21 -22 -22 -23 -23 -25 -27 -27 -27 -26 -26 -26 -26 -27 -28 -28 -28 -28 -28 -28 -27 -27 -27 -27 -26 -26 -25
-16 -12 -10 -12 -11 -10 -9 -9 -8 -7 -7 -7 -7 -7 -2 4 -6 -9 -9 -9 -11 -12 -13 -14 -14 -15 -15 -16 -17 -18 -19 -19 -20 -21 -22 -22 -23 -23 -24 -25 -26 -27 -27 -28 -27 -27 -27 -27 -27 -27 -28 -28 -29 -29 -29 -29 -29 -28 -28 -28 -27 -27 -27
-16 -16 -13 -12 -12 -11 -10 -10 -9 -9 -9 -1 3 3 -1 -7 -8 -11 -13 -14 -15 -16 -18 -18 -18 -18 -18 -18 -19 -20 -21 -21 -21 -21 -22 -23 -23 -25 -25 -26 -27 -28 -28 -27 -28 -28 -27 -26 -27 -28 -28 -28 -29 -28 -29 -30 -30 -29 -29 -28 -28 -27 -27